RYR81E EGCC-EBCI

Flight info

Callsign RYR81E
Flight time N/A
Altitude 29000
Route SANBA N859 HON L15 BIG Q70 VABIK/N0419F230 Q70 KOK
Aircraft B738/M-SDE2E3FGHIRWXY/LB1

Departure

Time 2026-05-01 15:13
Airport Manchester Airport (EGCC)

Arrival

Time N/A
Airport Brussels South Charleroi Airport (EBCI)
Time Latitude Longitude Altitude Speed Heading
2026-05-01 14:58 53.36209 -2.26473 247 ft 0 kts 321°
2026-05-01 15:03 53.36199 -2.26459 247 ft 2 kts 318°
2026-05-01 15:03 53.36187 -2.26441 247 ft 2 kts 313°
2026-05-01 15:04 53.36177 -2.26419 247 ft 2 kts 281°
2026-05-01 15:04 53.36181 -2.26396 247 ft 1 kts 227°
2026-05-01 15:04 53.36184 -2.26391 247 ft 0 kts 227°
2026-05-01 15:06 53.36184 -2.26392 247 ft 1 kts 227°
2026-05-01 15:06 53.36151 -2.26458 247 ft 11 kts 231°
2026-05-01 15:07 53.36107 -2.26547 247 ft 0 kts 230°
2026-05-01 15:08 53.36103 -2.26556 247 ft 6 kts 232°
2026-05-01 15:09 53.36065 -2.26583 248 ft 7 kts 168°
2026-05-01 15:09 53.36049 -2.26525 252 ft 7 kts 68°
2026-05-01 15:09 53.36074 -2.26461 252 ft 7 kts 53°
2026-05-01 15:09 53.36102 -2.26402 251 ft 8 kts 50°
2026-05-01 15:10 53.36133 -2.26331 251 ft 8 kts 62°
2026-05-01 15:10 53.36139 -2.26283 252 ft 0 kts 99°
2026-05-01 15:11 53.36137 -2.26271 252 ft 3 kts 110°
2026-05-01 15:12 53.36117 -2.26227 255 ft 6 kts 137°
2026-05-01 15:12 53.36021 -2.26156 258 ft 2 kts 227°
2026-05-01 15:12 53.35866 -2.26478 264 ft 80 kts 230°
2026-05-01 15:13 53.34189 -2.30132 1108 ft 213 kts 236°
2026-05-01 15:14 53.32768 -2.34784 4451 ft 161 kts 248°
2026-05-01 15:14 53.32599 -2.35979 5312 ft 156 kts 254°
2026-05-01 15:14 53.32167 -2.40263 6133 ft 216 kts 256°
2026-05-01 15:15 53.30859 -2.44081 7939 ft 190 kts 209°
2026-05-01 15:15 53.27860 -2.45860 6887 ft 262 kts 194°
2026-05-01 15:16 53.24323 -2.47554 5887 ft 273 kts 192°
2026-05-01 15:16 53.20585 -2.48648 5352 ft 265 kts 190°
2026-05-01 15:17 53.17149 -2.50488 4661 ft 265 kts 201°
2026-05-01 15:18 53.12269 -2.54035 4035 ft 253 kts 205°
2026-05-01 15:18 53.10784 -2.55405 3793 ft 254 kts 211°
2026-05-01 15:19 53.06268 -2.60147 2754 ft 261 kts 213°
2026-05-01 15:19 53.04757 -2.64689 3538 ft 228 kts 275°
2026-05-01 15:19 53.05400 -2.67193 3304 ft 251 kts 311°
2026-05-01 15:20 53.08351 -2.70216 3094 ft 256 kts 332°
2026-05-01 15:20 53.09981 -2.71458 2841 ft 255 kts 338°
2026-05-01 15:20 53.11627 -2.72399 2629 ft 252 kts 342°
2026-05-01 15:21 53.13289 -2.73002 2539 ft 245 kts 349°
2026-05-01 15:21 53.14940 -2.73416 2465 ft 241 kts 353°
2026-05-01 15:21 53.16602 -2.73620 2320 ft 242 kts 355°
2026-05-01 15:21 53.18240 -2.73777 2167 ft 238 kts 356°
2026-05-01 15:22 53.21476 -2.73890 1916 ft 224 kts 358°
2026-05-01 15:22 53.22757 -2.73887 1912 ft 210 kts 360°
2026-05-01 15:22 53.24129 -2.73841 1856 ft 198 kts
2026-05-01 15:23 53.25441 -2.73715 1633 ft 187 kts
2026-05-01 15:23 53.26690 -2.73544 1421 ft 176 kts
2026-05-01 15:23 53.27843 -2.73419 1461 ft 162 kts
2026-05-01 15:23 53.28978 -2.73395 1523 ft 164 kts 357°
2026-05-01 15:24 53.30088 -2.73494 1515 ft 158 kts 349°
2026-05-01 15:24 53.31102 -2.74027 1471 ft 151 kts 324°
2026-05-01 15:24 53.31818 -2.75306 1382 ft 151 kts 311°
2026-05-01 15:24 53.32477 -2.76610 1264 ft 145 kts 307°
2026-05-01 15:25 53.33051 -2.78002 1109 ft 144 kts 302°
2026-05-01 15:25 53.33449 -2.79474 886 ft 134 kts 284°
2026-05-01 15:25 53.33536 -2.80978 591 ft 127 kts 269°
2026-05-01 15:25 53.33477 -2.82459 310 ft 130 kts 267°
2026-05-01 15:26 53.33405 -2.83927 100 ft 124 kts 267°
2026-05-01 15:26 53.33380 -2.84873 94 ft 45 kts 267°
2026-05-01 15:26 53.33382 -2.85350 96 ft 38 kts 285°
2026-05-01 15:26 53.33433 -2.85571 94 ft 0 kts 293°
2026-05-01 15:27 53.33440 -2.85597 95 ft 7 kts 295°
2026-05-01 15:27 53.33474 -2.85656 96 ft 6 kts
2026-05-01 15:27 53.33501 -2.85601 94 ft 9 kts 72°
2026-05-01 15:28 53.33606 -2.85612 94 ft 7 kts 276°
2026-05-01 15:28 53.33573 -2.85653 93 ft 8 kts 182°
2026-05-01 15:28 53.33563 -2.85653 93 ft 0 kts 177°